DLH400 EDDF-KJFK

Flight info

Callsign DLH400
Flight time N/A
Altitude 36000
Route OBOKA5G OBOKA Z28 DIBIR DCT BUDIP DCT GISEB DCT RAVLO Y70 ABTOS N110 ERKIT DCT KUGUR DCT PIKIL/M083F370 NATG JANJO/N0476F380 N708B MIILS DCT ENE PARCH4
Aircraft A346/H-SDE2E3FGHIJ3J4J5M1RWXY/LB1D1

Departure

Time 2026-04-17 09:41
Airport Frankfurt Main Airport (EDDF)

Arrival

Time N/A
Airport John F. Kennedy International Airport (KJFK)
Time Latitude Longitude Altitude Speed Heading
2026-04-17 09:11 50.04768 8.56501 369 ft 0 kts 339°
2026-04-17 09:26 50.04759 8.56506 364 ft 0 kts 339°
2026-04-17 09:26 50.04735 8.56520 370 ft 0 kts 339°
2026-04-17 09:26 50.04710 8.56534 366 ft 0 kts 341°
2026-04-17 09:26 50.04698 8.56537 366 ft 0 kts
2026-04-17 09:28 50.04683 8.56535 366 ft 0 kts
2026-04-17 09:28 50.04658 8.56533 370 ft 0 kts 357°
2026-04-17 09:28 50.04642 8.56543 368 ft 0 kts 316°
2026-04-17 09:28 50.04638 8.56552 370 ft 0 kts 300°
2026-04-17 09:30 50.04641 8.56542 368 ft 2 kts 300°
2026-04-17 09:30 50.04653 8.56511 366 ft 4 kts 296°
2026-04-17 09:30 50.04661 8.56453 369 ft 7 kts 272°
2026-04-17 09:31 50.04652 8.56370 368 ft 9 kts 252°
2026-04-17 09:31 50.04626 8.56267 366 ft 11 kts 249°
2026-04-17 09:31 50.04595 8.56143 369 ft 13 kts 249°
2026-04-17 09:31 50.04554 8.56010 371 ft 14 kts 230°
2026-04-17 09:32 50.04476 8.55935 370 ft 12 kts 196°
2026-04-17 09:32 50.04419 8.55922 368 ft 8 kts 180°
2026-04-17 09:32 50.04398 8.55924 366 ft 1 kts 175°
2026-04-17 09:32 50.04384 8.55926 370 ft 4 kts 175°
2026-04-17 09:33 50.04348 8.55934 368 ft 7 kts 168°
2026-04-17 09:33 50.04295 8.55974 370 ft 10 kts 133°
2026-04-17 09:33 50.04280 8.56090 363 ft 12 kts 86°
2026-04-17 09:33 50.04267 8.56195 367 ft 5 kts 124°
2026-04-17 09:34 50.04262 8.56204 366 ft 3 kts 133°
2026-04-17 09:34 50.04234 8.56237 369 ft 8 kts 147°
2026-04-17 09:34 50.04183 8.56298 368 ft 10 kts 129°
2026-04-17 09:34 50.04167 8.56416 363 ft 12 kts 81°
2026-04-17 09:35 50.04192 8.56548 367 ft 13 kts 70°
2026-04-17 09:35 50.04224 8.56685 371 ft 13 kts 69°
2026-04-17 09:35 50.04257 8.56822 371 ft 13 kts 69°
2026-04-17 09:35 50.04291 8.56964 371 ft 15 kts 70°
2026-04-17 09:36 50.04327 8.57115 372 ft 15 kts 70°
2026-04-17 09:36 50.04364 8.57271 373 ft 16 kts 70°
2026-04-17 09:36 50.04403 8.57437 373 ft 17 kts 69°
2026-04-17 09:36 50.04445 8.57611 377 ft 17 kts 69°
2026-04-17 09:37 50.04488 8.57791 374 ft 19 kts 70°
2026-04-17 09:37 50.04536 8.57991 375 ft 21 kts 69°
2026-04-17 09:37 50.04582 8.58185 376 ft 16 kts 70°
2026-04-17 09:37 50.04619 8.58340 379 ft 15 kts 70°
2026-04-17 09:38 50.04642 8.58446 379 ft 10 kts 81°
2026-04-17 09:38 50.04619 8.58556 380 ft 12 kts 130°
2026-04-17 09:38 50.04585 8.58598 382 ft 5 kts 147°
2026-04-17 09:38 50.04543 8.58621 379 ft 8 kts 176°
2026-04-17 09:39 50.04488 8.58575 380 ft 11 kts 236°
2026-04-17 09:39 50.04480 8.58554 382 ft 0 kts 247°
2026-04-17 09:39 50.04474 8.58531 382 ft 14 kts 247°
2026-04-17 09:39 50.04366 8.58082 377 ft 74 kts 250°
2026-04-17 09:40 50.04124 8.57066 377 ft 125 kts 250°
2026-04-17 09:40 50.03763 8.55567 362 ft 169 kts 250°
2026-04-17 09:40 50.03318 8.53676 426 ft 197 kts 250°
2026-04-17 09:40 50.02849 8.51661 942 ft 199 kts 255°
2026-04-17 09:41 50.02711 8.49513 1479 ft 201 kts 272°
2026-04-17 09:41 50.02833 8.47331 2041 ft 201 kts 275°
2026-04-17 09:41 50.02948 8.45110 2372 ft 211 kts 269°
2026-04-17 09:41 50.02831 8.42777 2633 ft 222 kts 260°
2026-04-17 09:42 50.02559 8.40325 2870 ft 238 kts 258°
2026-04-17 09:42 50.02239 8.37706 3141 ft 253 kts 258°
2026-04-17 09:42 50.01903 8.34964 3534 ft 262 kts 258°
2026-04-17 09:42 50.01562 8.32159 4219 ft 263 kts 258°
2026-04-17 09:43 50.01309 8.29336 4898 ft 266 kts 270°
2026-04-17 09:43 50.01594 8.26537 5516 ft 270 kts 289°
2026-04-17 09:43 50.02334 8.23833 6185 ft 272 kts 294°
2026-04-17 09:43 50.03151 8.21152 6809 ft 275 kts 294°
2026-04-17 09:44 50.03971 8.18438 7512 ft 278 kts 294°
2026-04-17 09:44 50.04782 8.15702 8236 ft 279 kts 293°
2026-04-17 09:44 50.05645 8.12975 8919 ft 282 kts 298°
2026-04-17 09:44 50.06709 8.10400 9694 ft 284 kts 306°
2026-04-17 09:45 50.07930 8.07961 10409 ft 286 kts 308°
2026-04-17 09:45 50.09202 8.05514 10879 ft 297 kts 309°
2026-04-17 09:45 50.10549 8.02927 11189 ft 314 kts 308°
2026-04-17 09:45 50.11937 8.00251 11455 ft 330 kts 308°
2026-04-17 09:46 50.13413 7.97388 11752 ft 346 kts 308°
2026-04-17 09:46 50.14953 7.94390 12030 ft 361 kts 308°
2026-04-17 09:46 50.16559 7.91258 12332 ft 375 kts 308°
2026-04-17 09:46 50.18201 7.88055 12918 ft 379 kts 308°
2026-04-17 09:47 50.19851 7.84830 13680 ft 381 kts 308°
2026-04-17 09:47 50.21512 7.81581 14329 ft 384 kts 308°
2026-04-17 09:47 50.23190 7.78294 14932 ft 388 kts 309°
2026-04-17 09:47 50.25036 7.75261 15494 ft 392 kts 318°
2026-04-17 09:48 50.27241 7.72732 16117 ft 396 kts 328°
2026-04-17 09:48 50.29703 7.70782 16721 ft 399 kts 334°
2026-04-17 09:48 50.32267 7.69047 17301 ft 403 kts 335°
2026-04-17 09:48 50.34861 7.67324 17887 ft 406 kts 335°
2026-04-17 09:49 50.37465 7.65573 18449 ft 410 kts 335°
2026-04-17 09:49 50.40086 7.63786 18953 ft 413 kts 335°
2026-04-17 09:49 50.42731 7.61971 19460 ft 415 kts 335°
2026-04-17 09:49 50.45387 7.60143 20001 ft 418 kts 335°
2026-04-17 09:50 50.48062 7.58299 20518 ft 420 kts 335°
2026-04-17 09:50 50.50748 7.56444 21057 ft 423 kts 335°
2026-04-17 09:50 50.53441 7.54537 21535 ft 425 kts 333°
2026-04-17 09:50 50.56076 7.52413 22048 ft 427 kts 329°
2026-04-17 09:51 50.58641 7.50046 22543 ft 429 kts 326°
2026-04-17 09:51 50.61170 7.47502 23056 ft 431 kts 325°
2026-04-17 09:51 50.63687 7.44916 23540 ft 433 kts 325°
2026-04-17 09:51 50.66187 7.42337 23989 ft 436 kts 325°
2026-04-17 09:52 50.68745 7.39702 24394 ft 438 kts 325°
2026-04-17 09:52 50.71294 7.37034 24813 ft 439 kts 323°
2026-04-17 09:52 50.72923 7.35035 25092 ft 440 kts 318°
2026-04-17 09:52 50.75808 7.30533 25649 ft 441 kts 310°
2026-04-17 09:53 50.77102 7.27973 25931 ft 441 kts 306°
2026-04-17 09:53 50.78904 7.24025 26364 ft 443 kts 304°
2026-04-17 09:53 50.80673 7.20032 26750 ft 445 kts 304°
2026-04-17 09:53 50.82430 7.16049 27129 ft 447 kts 304°
2026-04-17 09:54 50.84221 7.11997 27530 ft 449 kts 304°
2026-04-17 09:54 50.86021 7.07933 27900 ft 451 kts 304°
2026-04-17 09:54 50.87826 7.03860 28231 ft 453 kts 304°
2026-04-17 09:54 50.89634 6.99782 28689 ft 452 kts 304°
2026-04-17 09:55 50.91445 6.95692 29308 ft 450 kts 304°
2026-04-17 09:55 50.93236 6.91640 29905 ft 447 kts 304°
2026-04-17 09:55 50.95012 6.87616 30473 ft 444 kts 304°
2026-04-17 09:55 50.96784 6.83598 30940 ft 442 kts 304°
2026-04-17 09:56 50.98540 6.79609 31431 ft 440 kts 304°
2026-04-17 09:56 51.00294 6.75620 31910 ft 438 kts 304°
2026-04-17 09:56 51.02028 6.71669 32368 ft 436 kts 304°
2026-04-17 09:56 51.03758 6.67721 32843 ft 434 kts 304°
2026-04-17 09:57 51.05477 6.63790 33295 ft 432 kts 304°
2026-04-17 09:57 51.07187 6.59873 33745 ft 430 kts 303°
2026-04-17 09:57 51.08869 6.56016 34178 ft 428 kts 303°
2026-04-17 09:57 51.10560 6.52132 34550 ft 426 kts 303°
2026-04-17 09:58 51.12249 6.48242 34837 ft 426 kts 303°
2026-04-17 09:58 51.13942 6.44338 35064 ft 428 kts 303°
2026-04-17 09:58 51.15636 6.40428 35297 ft 429 kts 303°
2026-04-17 09:58 51.17336 6.36497 35529 ft 430 kts 303°
2026-04-17 09:59 51.19034 6.32566 35757 ft 431 kts 303°
2026-04-17 09:59 51.20736 6.28622 35974 ft 432 kts 303°
2026-04-17 09:59 51.22438 6.24670 36173 ft 433 kts 303°
2026-04-17 09:59 51.24147 6.20695 36223 ft 434 kts 303°
2026-04-17 10:00 51.27560 6.12738 36222 ft 434 kts 303°
2026-04-17 10:00 51.30891 6.04683 36224 ft 434 kts 302°
2026-04-17 10:01 51.34193 5.96570 36221 ft 434 kts 302°
2026-04-17 10:01 51.37667 5.88652 36226 ft 434 kts 306°
2026-04-17 10:02 51.41579 5.81322 36224 ft 435 kts 311°
2026-04-17 10:02 51.45762 5.74300 36230 ft 436 kts 311°
2026-04-17 10:03 51.49966 5.67280 36230 ft 435 kts 311°
2026-04-17 10:03 51.54152 5.60262 36235 ft 435 kts 311°
2026-04-17 10:04 51.58334 5.53228 36241 ft 435 kts 311°
2026-04-17 10:04 51.62516 5.46172 36234 ft 435 kts 311°
2026-04-17 10:05 51.66693 5.39106 36230 ft 435 kts 311°
2026-04-17 10:05 51.67354 5.37986 36227 ft 435 kts 311°
2026-04-17 10:07 51.69517 5.34319 36220 ft 428 kts 311°
2026-04-17 10:07 51.73599 5.27390 36213 ft 415 kts 311°
2026-04-17 10:08 51.77627 5.20515 36215 ft 427 kts 311°